GFSFLT2_700_spd_114.txt.gz
Wind_Speed
22 22 22 20 15 13 11 11 10 8 5 4 4 3 4 4 5 6 7 8 7 7 7 6 6 6 5 4 5 4 3 3
26 27 26 24 19 17 16 15 14 11 9 7 5 4 4 5 6 7 8 8 8 7 7 7 7 7 7 7 7 5 4 5
29 30 31 30 22 20 21 18 17 15 12 10 8 6 5 6 6 7 9 10 10 9 9 9 8 8 9 9 10 9 7 5
33 32 34 33 25 22 23 22 20 18 15 12 9 9 7 7 8 8 9 11 11 12 12 11 11 10 10 11 12 12 9 8
36 35 36 35 32 25 24 26 22 20 18 15 12 12 10 9 9 10 10 10 11 12 12 11 11 11 12 12 15 15 13 14
36 36 36 36 37 32 30 28 25 21 19 17 16 13 11 11 11 11 11 11 12 12 12 12 13 13 15 15 16 17 17 16
37 38 36 36 38 37 34 31 28 25 22 21 20 17 15 13 13 14 14 14 13 13 12 13 14 15 15 16 15 18 19 18
42 40 38 40 39 40 37 35 32 30 27 25 24 21 20 18 17 17 16 16 16 15 14 13 13 14 15 16 16 17 19 20
41 45 42 41 40 41 43 39 37 35 32 31 31 28 25 24 23 21 20 19 19 18 17 16 14 14 14 14 15 15 17 19
37 40 46 43 42 41 41 42 42 39 35 35 35 32 30 28 29 27 24 23 22 22 20 18 17 16 15 16 16 17 17 18
44 41 44 46 43 44 45 42 42 42 38 38 35 33 33 33 34 32 29 27 26 25 24 22 20 19 18 19 19 20 18 20
43 50 49 48 47 48 49 51 49 43 44 43 38 37 35 33 32 36 35 31 30 30 28 27 26 23 22 23 23 24 22 22
44 46 53 53 52 54 56 57 57 52 50 48 45 44 40 36 32 32 38 37 34 33 33 31 30 28 28 26 26 27 27 23
47 49 50 54 56 56 59 59 56 57 55 53 50 49 45 40 35 31 32 41 40 38 37 36 34 32 31 29 29 30 29 26
51 50 52 52 54 56 57 59 63 62 62 58 56 51 50 44 40 36 34 37 43 41 40 40 38 35 34 32 31 31 33 29
44 47 48 51 51 54 57 57 59 65 66 62 56 54 54 51 46 40 38 38 40 44 44 41 42 40 37 37 33 33 32 34
39 41 42 47 55 57 56 55 55 53 57 62 64 58 56 56 51 46 42 41 39 40 44 43 42 42 41 39 37 34 34 35
38 45 45 46 52 53 55 55 53 46 50 51 54 63 60 59 54 50 46 44 42 41 40 40 39 40 42 42 40 37 35 36
32 42 48 48 51 53 56 48 49 46 44 40 42 51 66 62 57 51 46 43 43 40 39 35 32 34 38 40 41 38 38 36
28 28 35 40 47 52 59 48 43 43 41 38 41 47 49 58 58 47 45 42 42 41 39 37 33 33 33 36 39 39 40 37

GFSFLT2_700_spd_117.txt.gz
Wind_Speed
19 24 25 24 22 18 14 14 13 11 9 7 6 5 5 5 6 7 8 8 8 7 6 6 6 6 6 6 6 5 4 8
24 27 27 27 26 21 18 18 16 15 12 10 9 8 7 7 8 9 9 9 9 9 8 8 8 8 8 8 8 6 6 9
30 29 30 31 29 25 21 21 20 19 16 13 11 10 9 8 8 10 9 10 10 11 10 10 10 11 10 10 11 9 9 10
34 32 34 34 33 30 24 24 22 21 19 17 13 11 10 9 9 10 10 11 12 13 14 13 13 12 11 11 10 12 9 11
37 37 37 35 35 34 29 25 25 24 23 20 17 15 14 12 10 10 11 12 12 14 14 14 13 13 13 13 12 14 12 12
34 38 39 38 35 37 33 28 26 27 25 22 20 18 16 14 13 12 13 13 14 14 15 14 14 15 16 14 14 15 15 15
30 38 41 43 40 39 37 36 30 29 27 25 23 21 18 16 14 14 15 16 14 14 16 17 16 16 16 14 15 15 16 19
31 31 39 42 43 42 41 39 36 33 32 29 26 24 22 20 18 16 16 16 17 17 17 17 17 17 16 14 15 15 17 17
32 31 34 40 40 41 43 42 41 39 36 35 31 29 26 24 22 21 18 18 18 21 20 20 18 17 16 14 13 14 16 14
36 38 34 39 40 42 43 44 45 44 42 39 36 33 31 30 28 26 24 22 20 22 23 23 21 20 18 17 16 15 15 16
41 45 41 40 43 42 42 43 44 47 46 45 42 38 36 35 35 33 30 29 25 24 26 26 25 24 22 21 19 18 18 18
36 40 48 48 45 46 46 42 44 45 47 49 46 44 40 38 40 38 36 35 32 28 29 29 28 27 25 25 23 23 22 21
35 40 43 48 52 50 49 51 49 49 48 48 47 47 46 44 41 40 38 36 37 34 33 33 32 32 29 29 28 27 26 24
40 41 44 47 51 55 57 55 54 55 51 48 47 49 50 47 45 42 39 34 35 40 38 36 35 36 35 33 32 31 29 29
42 42 45 48 52 55 58 61 62 60 63 55 53 52 55 51 47 46 44 40 38 37 42 42 39 39 39 37 34 34 34 33
45 46 43 45 50 55 59 61 63 59 62 65 59 59 59 54 52 51 50 46 41 38 38 43 43 42 41 40 37 37 35 31
44 43 44 44 45 50 57 63 63 63 63 64 70 64 62 57 56 57 54 51 45 41 39 39 44 46 44 41 40 38 39 39
43 44 46 46 46 45 51 61 64 63 61 57 60 66 64 61 61 60 59 54 51 44 42 42 41 42 44 45 43 40 40 42
38 41 43 43 45 48 50 55 62 65 61 58 45 54 57 59 61 63 60 57 54 51 48 45 42 42 45 44 39 39 37 41
35 37 41 39 42 49 54 53 55 61 65 53 62 42 50 48 55 57 63 60 57 54 50 45 43 43 43 34 31 32 31 36

GFSFLT2_700_spd_120.txt.gz
Wind_Speed
23 22 26 27 25 23 19 16 13 13 11 10 8 7 7 7 8 9 9 10 10 9 7 7 6 6 5 5 5 6 7 10
24 19 25 28 27 26 22 19 17 16 15 13 11 10 8 9 9 10 11 11 11 11 10 9 8 8 7 6 6 7 8 9
28 27 26 29 29 28 26 21 19 18 18 16 14 12 10 8 8 9 11 12 12 12 12 11 11 10 9 8 8 9 10 10
30 32 28 31 32 32 30 26 21 21 19 18 17 14 12 10 10 10 11 12 13 14 14 14 13 11 10 9 9 11 14 13
31 33 36 32 34 35 33 30 24 23 22 20 20 18 16 14 12 12 11 11 12 14 14 14 13 13 12 11 11 13 14 15
29 34 34 38 37 35 36 34 31 27 26 23 22 22 20 16 14 14 11 12 13 14 14 14 15 15 15 14 13 14 15 17
27 30 30 32 41 38 36 38 37 32 29 27 25 24 23 19 17 16 16 16 16 15 16 16 16 17 14 12 13 14 15 14
26 27 32 30 33 36 39 39 38 38 35 29 28 27 25 22 21 19 17 17 17 18 17 16 18 18 16 14 12 11 12 15
14 24 29 31 31 36 40 41 40 40 39 35 30 29 28 25 24 23 21 20 18 20 20 19 20 19 17 15 13 12 12 12
26 29 35 36 36 35 37 41 42 42 42 42 37 32 30 29 29 26 25 24 23 21 21 22 23 22 20 18 17 14 14 13
35 39 40 41 39 38 40 37 38 42 48 46 45 37 35 34 33 30 30 29 27 25 24 23 25 25 24 22 21 19 17 16
31 37 39 40 41 42 40 41 43 42 42 46 50 45 40 40 39 36 34 34 33 32 28 27 27 27 28 27 24 22 22 21
39 37 38 41 42 43 46 45 41 46 43 44 44 48 47 45 45 44 39 38 37 37 34 31 31 30 31 31 29 28 27 25
40 42 43 43 44 47 49 50 53 50 48 49 44 47 49 50 50 49 45 42 40 41 38 37 36 34 35 33 34 33 31 27
40 41 44 46 47 49 51 52 52 54 54 55 53 51 50 51 51 50 51 47 44 41 39 36 36 39 38 38 39 37 34 32
45 44 42 41 47 50 53 56 57 56 57 55 49 57 56 54 52 49 50 53 48 45 40 39 36 35 42 41 40 38 40 39
40 44 45 43 44 48 52 55 59 61 59 61 63 50 61 57 56 55 51 55 50 52 45 43 41 36 38 42 43 41 40 40
41 41 42 43 45 45 48 50 52 57 61 61 63 68 66 63 59 58 56 57 56 50 41 44 44 40 39 39 39 42 41 42
40 40 40 40 43 45 47 50 49 50 53 59 59 60 65 62 57 61 60 62 59 57 50 49 45 45 41 40 39 38 39 40
32 34 38 42 44 45 46 47 48 48 49 50 55 61 59 55 55 51 60 63 60 57 55 52 50 48 44 42 40 39 39 43

GFSFLT2_700_spd_123.txt.gz
Wind_Speed
24 17 20 28 29 27 25 22 18 15 14 12 11 10 9 10 10 10 11 12 12 12 11 10 9 7 6 6 5 5 5 2
24 24 19 27 31 30 27 25 21 17 16 14 13 12 11 10 10 10 11 12 12 13 12 11 11 9 8 7 5 6 4 4
24 29 22 23 31 32 30 29 25 20 18 18 16 13 11 10 9 11 12 12 12 13 13 13 12 10 8 8 7 9 7 8
30 30 32 24 25 34 33 30 28 24 20 19 19 16 13 12 11 11 11 13 13 14 14 14 13 10 10 8 9 11 9 7
29 28 33 31 28 30 34 32 31 28 25 23 22 20 18 15 13 11 9 11 12 12 12 12 13 12 12 11 11 13 13 10
27 27 27 30 26 31 32 35 35 34 30 27 25 23 22 20 16 14 12 11 11 12 12 13 13 14 14 13 14 15 14 13
22 24 27 30 25 30 35 34 37 36 37 34 30 27 24 24 22 19 17 15 12 13 11 13 13 14 15 14 15 16 14 13
23 29 31 32 31 25 34 38 38 39 41 39 35 31 29 27 26 23 21 19 17 15 15 14 14 14 14 15 14 16 14 12
28 32 34 32 35 36 32 37 40 38 37 37 37 36 33 31 29 28 25 22 20 18 18 17 18 16 15 15 15 16 15 12
35 37 38 36 34 37 39 39 42 42 39 38 47 46 37 34 33 31 28 27 24 22 21 18 19 20 18 17 17 16 17 14
36 37 38 39 35 36 38 41 40 42 43 42 43 42 38 37 34 32 32 31 29 25 24 21 21 21 21 23 20 21 19 18
42 39 39 42 44 41 39 40 43 42 43 45 43 46 48 41 37 35 35 36 33 30 31 27 23 22 23 25 26 25 23 22
43 44 46 47 45 44 46 43 44 45 45 46 43 48 47 45 47 41 42 41 38 35 33 32 28 27 27 28 30 28 29 27
46 47 50 50 48 49 49 49 47 48 48 48 49 49 46 46 58 49 45 45 43 42 39 38 36 32 34 32 32 33 33 30
49 53 49 48 50 48 50 53 53 50 50 53 53 53 49 49 52 49 55 50 48 47 46 43 42 37 37 38 37 37 34 33
56 56 57 56 53 50 49 51 55 55 54 55 56 56 56 53 50 50 49 50 52 53 51 49 46 43 40 38 37 35 37 36
56 57 54 51 49 48 50 51 53 56 56 58 58 59 59 58 54 51 52 51 51 55 55 59 54 46 43 38 34 34 34 37
50 52 53 50 48 49 50 50 50 52 54 57 59 60 60 61 58 56 54 52 53 53 56 64 63 56 44 41 38 35 31 34
47 47 46 47 48 46 47 49 49 47 47 50 53 59 61 62 56 54 58 56 54 56 59 62 53 62 45 41 39 37 34 31
43 45 44 41 41 43 45 48 49 49 46 44 45 49 55 60 64 59 57 59 56 56 56 57 54 47 34 52 43 39 35 35